Printer-friendly version

IAU Minor Planet Center

Minor Planet Center

MPEC 2004-Q62 : 2003 UV11

The following Minor Planet Electronic Circular may be linked-to from your own Web pages, but must not otherwise be redistributed electronically.


Read MPEC 2004-Q61 Read MPEC 2004-Q63


M.P.E.C. 2004-Q62                                Issued 2004 Aug. 30, 03:35 UT

     The Minor Planet Electronic Circulars contain information on unusual
         minor planets and routine data on comets.  They are published
   on behalf of Commission 20 of the International Astronomical Union by the
          Minor Planet Center, Smithsonian Astrophysical Observatory,
                          Cambridge, MA 02138, U.S.A.

                  Supported in part by the Brinson Foundation
             Prepared using the Tamkin Foundation Computer Network

                              MPC@CFA.HARVARD.EDU
          URL http://cfa-www.harvard.edu/iau/mpc.html  ISSN 1523-6714

                                   2003 UV11

                           Revision to MPEC 2003-U39

Additional Observations:
     K03U11V 3C2004 07 22.61345 23 01 22.01 -15 39 12.6          23.0 R EQ062568
     K03U11V 3C2004 07 22.61744 23 01 21.72 -15 39 14.9                 EQ062568
     K03U11V 3C2004 07 22.61944 23 01 21.57 -15 39 16.1                 EQ062568
     K03U11V 3C2004 07 23.61419 23 00 10.14 -15 48 58.2          23.0 R EQ062568
     K03U11V 3C2004 07 23.61817 23 00 09.81 -15 49 00.7                 EQ062568
     K03U11V 3C2004 07 23.62015 23 00 09.65 -15 49 01.7                 EQ062568

Observer details:
568 Mauna Kea.  Observer C. Veillet.  2.2-m University of Hawaii reflector
    + CCD.

First and last observations above in comparison with prediction:
Residuals in seconds of arc, reference and Delta-T
040722 568 11.1-  6.0-    040723 568 10.6-  6.2-    MPO 57987   -0.0013 day

Orbital elements:
2003 UV11
Epoch 2004 July 14.0 TT = JDT 2453200.5                 MPC
M 117.57169              (2000.0)            P               Q
n   0.56398009     Peri.  124.58886     -0.91644256     -0.39635332
a   1.4508645      Node    32.16204     +0.32481906     -0.81723294
e   0.7628546      Incl.    5.94239     +0.23372123     -0.41837110
P   1.75           H   19.3           G   0.15           U   4
Residuals in seconds of arc
031002 691  0.1-  0.1+    031025 830  0.2+  0.4+    031027 A30 (4.6+  0.8+)
031002 691  0.2-  0.1+    031025 830  1.5-  0.3-    031027 104  1.9-  1.5-
031002 691  0.2-  0.1+    031025 830  0.5-  0.1-    031027 104  0.5+  0.8+
031009 699  0.6+  0.7+    031025 830  1.7-  0.3-    031027 A30 (4.4+  1.1+)
031009 699  0.6+  0.4+    031025 711  0.0   0.0     031027 A30 (3.8+  0.8+)
031009 699  0.0   0.3-    031025 711  0.3+  0.1-    031027 104 (0.9+  6.8+)
031009 699  0.7-  0.2-    031025 711  0.0   0.0     031027 A30 (5.0+  0.8+)
031009 620  0.3+  0.3+    031025 711  0.0   0.0     031027 A30 (4.5+  1.0+)
031009 620  0.2-  0.5-    031025 322  0.1-  0.8+    031027 A30 (3.5+  0.9+)
031021 699  0.2-  0.2-    031025 322  0.9+  0.1+    031027 A30 (3.8+  1.4+)
031021 699  0.3+  0.1-    031025 322  0.0   0.1+    031027 A30 (3.3+  0.9+)
031021 699  0.0   0.3-    031025 322  0.8-  0.1+    031027 A30 (4.6+  0.0 )
031021 704  0.9+  1.4-    031025 322  0.8-  0.1-    031027 A30 (3.8+  1.1+)
031021 699  0.2-  0.1+    031025 151  0.7-  0.2-    031027 A30  1.8+  0.7+
031021 704  0.9+  1.0-    031025 151  0.9-  0.6-    031028 711  0.7+  0.8+
031021 704  0.7+  1.1-    031025 151  0.0   0.4-    031028 711  0.2-  0.5+
031021 704  0.7+  1.1-    031025 151  0.2+  0.3-    031028 711  0.3-  0.5+
031021 704  0.6+  1.1-    031025 151  0.4-  0.1-    031028 711  0.1+  0.6+
031021 673  1.1-  0.4+    031025 151  0.1+  0.1+    031028 711  0.0   0.5+
031021 673  0.9-  0.4+    031025 151  0.2+  0.0     031028 711  0.2+  0.6+
031021 673  1.0-  0.4+    031025 151  0.1-  0.2-    031028 711  0.2+  0.5+
031021 673  1.0-  0.4+    031025 151  0.1+  0.4-    031028 711  0.2+  0.5+
031021 673  0.9-  0.4+    031025 151  0.2+  0.3-    031028 711  0.1+  0.5+
031021 673  0.4-  0.4+    031025 151  0.4+  0.2-    031028 711  0.5+  0.8+
031021 649  0.0   0.3-    031025 151  1.4-  0.4-    031028 711  0.3+  0.6+
031021 649  0.2+  0.3-    031025 151  0.9-  0.6-    031028 711  0.2-  0.6+
031021 649  0.2+  0.2-    031025 151  0.0   0.1-    031028 711  0.1-  0.7+
031021 026  0.1-  0.4-    031025 151  0.1+  0.2-    031028 704  0.1-  1.0+
031021 026  0.3+  0.2-    031025 151  0.2-  0.2-    031028 704  0.1-  0.9+
031022 808  0.7-  0.0     031025 151  0.0   0.2+    031028 704  0.0   0.8+
031022 808  0.4-  0.2-    031025 151  0.4-  0.4-    031028 704  0.0   0.7+
031022 808  0.6+  0.4-    031025 441  0.4+  0.0     031028 704  0.1+  0.9+
031022 808  1.2-  0.1-    031025 441  0.0   0.2-    031028 711  0.2+  0.4+
031022 673  0.4+  0.6+    031025 441  0.3+  0.2-    031028 711  0.1+  0.4+
031022 673  0.2+  0.4+    031025 441  1.0+  1.5-    031028 711  0.8-  0.5+
031022 673  0.3-  0.4+    031025 106  0.1-  0.0     031028 711  0.3-  0.8+
031022 673  0.3+  0.6+    031025 106  0.0   0.1-    031028 711  0.2-  0.7+
031022 673  0.3+  0.3+    031025 106  0.1-  0.4-    031028 711  0.4+  0.4+
031022 673  0.3+  0.3+    031025 106  0.1+  0.1-    031028 711  0.7-  0.1-
031022 649  0.2+  0.2-    031025 106  0.2+  0.1-    031028 151  0.4+  0.1+
031022 649  0.4+  0.3-    031025 106  0.1+  0.4-    031028 151  0.1-  0.1+
031022 649  0.2+  0.2-    031025 106  0.3+  0.1-    031028 151  0.3+  0.2-
031022 448  0.1+  0.3-    031025 106  0.1+  0.1-    031028 151  0.6+  0.3-
031022 448  0.4-  0.4-    031025 106  0.3+  0.2-    031028 151  0.0   0.2+
031022 704  0.0   0.5+    031025 106  0.1+  0.2-    031028 151  0.0   0.3-
031022 850  0.0   0.1+    031025 106  0.3+  0.1-    031028 151  1.9-  0.7-
031022 448  0.3-  0.4-    031025 106  0.1+  0.0     031028 151  2.0-  1.0-
031022 704  0.1+  0.3+    031025 106  0.2+  0.3-    031028 151  1.6-  0.3-
031022 850  0.1+  0.1+    031025 106  0.1+  0.1-    031028 127(18.9+  5.4+)
031022 704  0.3-  0.4+    031025 106  0.0   0.1-    031028 127(19.6+  5.6+)
031022 704  0.1+  0.4+    031025 106  0.1+  0.1-    031028 127(19.4+  5.5+)
031022 850  0.3+  0.1+    031025 106  0.2+  0.1-    031029 413  0.1+  0.3-
031022 704  0.3-  0.2+    031025 106  0.6+  0.2-    031029 413  0.3+  0.3-
031022 926  0.5+  0.0     031025 106  0.1+  0.2-    031029 413  0.3+  0.1-
031022 926  0.4+  0.1-    031025 106  0.0   0.1-    031029 176  0.4-  0.3-
031022 926  0.1+  0.0     031025 106  0.5+  0.3-    031029 176  0.5-  0.3-
031022 300  0.5+  0.7+    031025 106  0.3+  0.3-    031029 176  0.8-  0.3-
031022 300  0.0   1.4+    031025 106  0.2+  0.1+    031029 176  1.2-  0.4-
031022 300  0.1-  0.4+    031025 106  0.1+  0.2-    031030 413  0.1+  0.3-
031022 300  0.8+  0.2+    031025 106  0.5+  0.0     031030 413  0.2+  0.3-
031022 300  0.2+  1.4+    031025 106  0.1+  0.3-    031030 413  0.5+  0.3-
031022 300  0.3+  1.1+    031025 106  0.2+  0.2-    031030 428  0.1+  0.1-
031022 300  0.8+  1.0+    031025 106  0.6+  0.1-    031030 428  0.6+  0.2+
031022 300  0.3+  1.7+    031025 106  0.3+  0.1-    031030 428  0.1+  0.0
031023 808  0.2+  0.2+    031025 106  0.2+  0.3-    031030 428  0.7+  0.0
031023 808  0.6-  0.1+    031025 106  0.4+  0.1-    031030 E14  1.3-  0.8-
031023 808  0.1+  0.2+    031025 106  0.3+  0.3-    031030 E14  1.3-  1.0-
031023 808  0.2-  0.1+    031025 106  0.4+  0.2-    031030 E14  0.8-  0.4-
031023 H72  0.0   0.6+    031025 106  0.4+  0.2-    031030 347  1.3-  0.4+
031023 H72  0.2-  0.1+    031025 106  0.1+  0.2-    031030 347  0.6-  0.8-
031023 H72  0.1-  0.3-    031025 106  0.1+  0.4-    031030 A30 (2.6-  0.8-)
031023 H72  0.3+  0.5-    031025 106  0.3+  0.2-    031030 A30  0.7+  1.8-
031023 H72  0.1-  0.1-    031025 106  0.3+  0.2-    031030 A30  0.0   0.3+
031023 247  1.6-  0.1+    031025 106  0.4+  0.1-    031030 A30  1.7-  1.3+
031023 247  0.9-  0.1-    031025 106  0.1+  0.4-    031030 A30 (0.9-  2.2-)
031023 247  0.7+  0.0     031025 106  0.3+  0.3-    031030 A30 (3.3-  2.1-)
031023 247 (2.2+  0.5+)   031025 106  0.1+  0.1-    031030 A30 (3.1-  0.8+)
031023 938  0.4+  0.3-    031025 106  0.2+  0.3-    031030 A30  0.2+  1.4-
031023 938  0.2+  0.3-    031025 106  0.2+  0.4-    031030 A30  1.7-  0.0
031023 938  0.1-  0.3-    031025 106  0.2+  0.1-    031030 A30 (2.5-  1.1+)
031024 H72  0.8+  0.2+    031026 379  0.9+  0.1-    031030 A30  1.3+  0.4+
031024 H72 (4.2-  0.5+)   031026 379  0.9+  0.0     031030 A30  0.1-  0.3-
031024 H72  0.0   0.6+    031026 379  0.5+  0.1+    031030 A30  0.5+  0.4+
031024 711  0.2+  0.1+    031026 J95  0.4+  0.2-    031030 A30  1.8-  1.0-
031024 711  0.3-  0.3-    031026 J95  0.2+  0.2-    031030 A30 (3.5-  1.9-)
031024 711  0.1+  0.0     031026 J95  0.5+  0.2-    031030 A30  1.6-  0.1+
031024 711  0.3+  0.0     031027 711  0.4-  0.2+    031030 A30 (2.2-  1.3-)
031024 704  0.1-  0.2+    031027 711  0.0   0.3+    031030 A30 (1.0+  2.8+)
031024 704  0.5-  0.3+    031027 711  0.1-  0.5+    031030 A30  0.6+  0.2+
031024 704  0.6-  0.3+    031027 711  0.1-  0.4+    031030 A30  1.9-  0.2+
031024 704  1.1-  0.4+    031027 711  0.3-  0.4+    031101 428  0.6+  0.1+
031024 704  1.3-  0.2+    031027 711  0.2-  0.2+    031101 413  0.1+  0.0
031024 379 (2.6+  0.8-)   031027 711  0.4+  0.3+    031101 413  0.2+  0.1-
031024 379 (2.6+  0.0 )   031027 711  0.1-  0.2+    031101 413  0.3+  0.1-
031024 108  0.1-  1.2+    031027 711  0.2-  0.3+    031101 428  1.2+  0.1+
031024 108 (0.6+  2.2+)   031027 711  0.1-  0.3+    031101 428  0.9+  0.1+
031024 108  0.5+  0.6-    031027 711  0.1+  0.5+    031101 428  0.5+  0.1-
031024 108  0.1-  1.1-    031027 711  0.1-  0.3+    031102 670  0.3+  1.0+
031024 108  0.3-  1.2-    031027 711  0.2+  0.5+    031102 670  0.2+  0.5+
031024 246  0.2-  0.1-    031027 711  0.7+  0.3+    031102 670  0.7+  0.9+
031024 246  0.6-  0.2+    031027 151  0.1-  0.3-    031102 670  0.1+  0.4-
031024 246  0.2+  0.2+    031027 151  0.2+  0.3-    031102 670  0.0   0.6+
031024 246  0.4+  0.3+    031027 151  0.0   0.1-    031103 428  0.7-  0.3+
031024 246  0.8+  0.4+    031027 151  0.2+  0.2-    031103 428  0.6-  0.1+
031024 246  0.1+  0.2+    031027 151  0.2+  0.2-    031103 428  0.2-  0.0
031025 830  1.0-  0.4-    031027 151  0.3+  0.2+    031103 170  0.0   0.8+
031025 830  1.2+  0.6+    031027 151  0.3+  0.0     031103 170  0.2+  0.7+
031025 830 (2.9-  0.4-)   031027 151  0.7-  0.4-    031103 170  0.2-  0.4+
031025 830  1.4+  0.2+    031027 151  1.1-  0.4-    040722 568  0.6-  0.4+
031025 830  0.5-  0.2-    031027 185  0.2+  0.2-    040722 568  0.6-  0.4+
031025 830  1.9-  0.3-    031027 185  0.1-  0.1-    040722 568  0.6-  0.4+
031025 830  0.1+  0.2+    031027 185  0.3+  0.0     040723 568  0.5+  0.1+
031025 830  0.8-  0.1-    031027 185  0.3+  0.1-    040723 568  0.1+  0.0
031025 830  1.3+  0.4+    031027 185  0.4-  0.1-    040723 568  0.1-  0.1+
031025 830  0.5+  0.4+    031027 A30 (4.3+  1.0+)
031025 830 (2.9+  0.7+)   031027 104  1.0-  0.8+

Ephemeris:
2003 UV11                a,e,i = 1.45, 0.76, 6                   q = 0.3441
Date    TT    R. A. (2000) Decl.     Delta      r     Elong.  Phase     V
2004 08 23    22 10.59   -20 53.8    1.468    2.471   170.5     3.9    22.5
2004 09 02    21 52.85   -22 06.1    1.518    2.494   161.0     7.6    22.7
2004 09 12    21 37.28   -22 52.7    1.599    2.513   148.6    12.0    23.0
2004 09 22    21 25.05   -23 14.4    1.705    2.529   136.5    15.9    23.3
2004 10 02    21 16.66   -23 15.1    1.831    2.541   125.1    18.8    23.6
2004 10 12    21 12.05   -22 59.6    1.970    2.550   114.4    20.9    23.8
2004 10 22    21 10.88   -22 31.7    2.119    2.556   104.5    22.2    24.0

Gareth V. Williams           (C) Copyright 2004 MPC           M.P.E.C. 2004-Q62

Read MPEC 2004-Q61 Read MPEC 2004-Q63


Our Web policy. Index to the CBAT/MPC/ICQ pages.


Valid HTML 4.01!